2023/07/31 00:00:00,77.9,20.4
2023/07/31 00:10:00,76.3,20.3
2023/07/31 00:20:00,---,20.3
2023/07/31 00:30:00, 8.5,20.2
2023/07/31 00:40:00, 0.0,20.3
2023/07/31 00:50:00, 0.0,20.3
2023/07/31 01:00:00, 0.0,20.1
2023/07/31 01:10:00, 0.0,20.2
2023/07/31 01:20:00, 0.0,20.2
2023/07/31 01:30:00, 0.0,20.1
2023/07/31 01:40:00, 0.0,20.4
2023/07/31 01:50:00, 0.0,20.0
2023/07/31 02:00:00, 0.0,19.9
2023/07/31 02:10:00, 0.0,20.2
2023/07/31 02:20:00, 0.0,20.2
2023/07/31 02:30:00, 0.0,20.1
2023/07/31 02:40:00, 0.0,20.2
2023/07/31 02:50:00, 0.0,19.8
2023/07/31 03:00:00, 0.0,19.8
2023/07/31 03:10:00, 0.0,19.8
2023/07/31 03:20:00, 0.0,19.8
2023/07/31 03:30:00, 0.0,19.7
2023/07/31 03:40:00, 0.0,19.6
2023/07/31 03:50:00, 0.0,19.6
2023/07/31 04:00:00, 1.1,19.5
2023/07/31 04:10:00,24.5,19.5
2023/07/31 04:20:00,---,19.6
2023/07/31 04:30:00,---,19.3
2023/07/31 04:40:00,77.4,19.4
2023/07/31 04:50:00,77.4,19.5
2023/07/31 05:00:00,77.0,19.5
2023/07/31 05:10:00,54.7,19.4
2023/07/31 05:20:00,41.2,19.5
2023/07/31 05:30:00,78.8,19.5
2023/07/31 05:40:00,80.1,19.7
2023/07/31 05:50:00,80.8,19.8
2023/07/31 06:00:00,81.0,19.9
2023/07/31 06:10:00,81.5,19.9
2023/07/31 06:20:00,81.6,20.4
2023/07/31 06:30:00,81.7,20.2
2023/07/31 06:40:00,82.0,20.8
2023/07/31 06:50:00,82.3,21.0
2023/07/31 07:00:00,82.4,21.4
2023/07/31 07:10:00,82.4,21.5
2023/07/31 07:20:00,82.6,21.9
2023/07/31 07:30:00,82.7,22.5
2023/07/31 07:40:00,82.9,23.3
2023/07/31 07:50:00,82.9,23.8
2023/07/31 08:00:00,82.7,24.0
2023/07/31 08:10:00,81.7,24.6
2023/07/31 08:20:00,81.0,24.7
2023/07/31 08:30:00,81.0,24.7
2023/07/31 08:40:00,80.5,25.4
2023/07/31 08:50:00,81.5,26.2
2023/07/31 09:00:00,82.0,26.1
2023/07/31 09:10:00,80.6,26.2
2023/07/31 09:20:00,80.9,26.1
2023/07/31 09:30:00,81.0,26.1
2023/07/31 09:40:00,81.5,26.4
2023/07/31 09:50:00,82.9,27.3
2023/07/31 10:00:00,68.7,28.2
2023/07/31 10:10:00,34.2,27.9
2023/07/31 10:20:00,34.3,28.5
2023/07/31 10:30:00,---,29.8
2023/07/31 10:40:00,66.3,30.2
2023/07/31 10:50:00,82.8,30.4
2023/07/31 11:00:00,82.1,30.8
2023/07/31 11:10:00,81.9,31.2
2023/07/31 11:20:00,81.7,31.6
2023/07/31 11:30:00,81.7,31.1
2023/07/31 11:40:00,81.6,31.2
2023/07/31 11:50:00,82.2,29.7
2023/07/31 12:00:00,81.5,30.0
2023/07/31 12:10:00,81.4,30.0
2023/07/31 12:20:00,81.3,31.1
2023/07/31 12:30:00,81.2,31.3
2023/07/31 12:40:00,80.9,32.4
2023/07/31 12:50:00,81.0,30.9
2023/07/31 13:00:00,80.6,30.9
2023/07/31 13:10:00,80.9,31.2
2023/07/31 13:20:00,80.6,30.6
2023/07/31 13:30:00,---,31.0
2023/07/31 13:40:00,---,30.5
2023/07/31 13:50:00, 0.0,31.1
2023/07/31 14:00:00, 0.0,30.4
2023/07/31 14:10:00, 0.0,30.6
2023/07/31 14:20:00, 0.0,30.9
2023/07/31 14:30:00, 0.0,30.2
2023/07/31 14:40:00,114.3,30.5
2023/07/31 14:50:00,---,31.2
2023/07/31 15:00:00,---,30.4
2023/07/31 15:10:00,80.5,30.4
2023/07/31 15:20:00,81.9,29.6
2023/07/31 15:30:00,---,29.4
2023/07/31 15:40:00, 0.0,29.3
2023/07/31 15:50:00, 0.0,28.4
2023/07/31 16:00:00, 0.0,28.7
2023/07/31 16:10:00, 0.0,28.9
2023/07/31 16:20:00, 0.0,29.0
2023/07/31 16:30:00, 0.0,28.9
2023/07/31 16:40:00, 0.0,28.8
2023/07/31 16:50:00,---,28.4
2023/07/31 17:00:00,---,28.1
2023/07/31 17:10:00,79.3,28.1
2023/07/31 17:20:00,79.7,28.4
2023/07/31 17:30:00,55.6,27.8
2023/07/31 17:40:00, 0.0,27.6
2023/07/31 17:50:00, 0.0,26.9
2023/07/31 18:00:00, 0.0,26.6
2023/07/31 18:10:00, 0.0,26.5
2023/07/31 18:20:00, 0.0,26.2
2023/07/31 18:30:00, 0.0,25.9
2023/07/31 18:40:00, 0.0,25.6
2023/07/31 18:50:00, 0.0,25.3
2023/07/31 19:00:00, 0.0,24.8
2023/07/31 19:10:00, 0.4,24.9
2023/07/31 19:20:00,79.1,24.5
2023/07/31 19:30:00,79.7,24.2
2023/07/31 19:40:00,79.9,24.0
2023/07/31 19:50:00,80.1,23.9
2023/07/31 20:00:00,80.3,23.8
2023/07/31 20:10:00,80.5,23.8
2023/07/31 20:20:00,80.7,23.3
2023/07/31 20:30:00,80.8,23.6
2023/07/31 20:40:00,79.8,23.1
2023/07/31 20:50:00,78.6,23.1
2023/07/31 21:00:00,78.5,22.6
2023/07/31 21:10:00,78.5,22.8
2023/07/31 21:20:00,78.6,22.6
2023/07/31 21:30:00,78.6,22.4
2023/07/31 21:40:00,78.6,22.2
2023/07/31 21:50:00,78.6,22.0
2023/07/31 22:00:00,78.6,22.0
2023/07/31 22:10:00,78.6,22.0
2023/07/31 22:20:00,78.6,21.6
2023/07/31 22:30:00,78.5,21.8
2023/07/31 22:40:00,78.6,21.4
2023/07/31 22:50:00,78.6,21.4
2023/07/31 23:00:00,78.5,21.1
2023/07/31 23:10:00,78.5,21.0
2023/07/31 23:20:00,78.6,20.8
2023/07/31 23:30:00,78.5,20.7
2023/07/31 23:40:00,78.5,21.3
2023/07/31 23:50:00,78.6,20.7
